sat.trackr.live / text

‹ back to catalog

STARLINK-35945

NORAD 66925 · 2025-286A

PAYLOAD ACTIVE UNKNOWN

§ Identity

Operator
Country
US
Launch date
2025-12-07
Launch site
AFWTR
Launch vehicle
Mass (kg)
RCS (m²)

Purposes: comms

External: N2YO · Heavens-Above · Gunter

§ Orbital elements

Epoch: 2026-09-19T06:09:37.797408Z

Period
93.85 min
Inclination
53.1571°
Eccentricity
0.0000995
Mean motion
15.34388600 rev/d
Perigee alt
462.1 km
Apogee alt
463.4 km
Semi-major
6,840.9 km
B*
5.3205e-4
RAAN
175.7431°
Arg perigee
83.1055°
Mean anomaly
277.0061°
Rev number
4,510

§ Raw data

STARLINK-359451 66925U 25286A   26262.25668747  .00017636  00000+0  53205-3 0  99942 66925  53.1571 175.7431 0000995  83.1055 277.0061 15.34388600 45106

JSON: /api/v1/satellites/66925 · /tle

For live sub-satellite position, see the globe view (requires WebGL).

§ Visibility from observer

Set your observer location to see the next 7 days of passes ≥ 10°. The values pass through the URL so the page stays shareable.

No JS? Fill the form by hand. The geolocation button needs JavaScript.